Terug naar catalogus

STARLINK-35366

ActiefCommunicatieVLEO
NORAD 66512·PAYLOAD·🇺🇸 United States

Gelanceerd Nov 15, 2025 vanaf Cape Canaveral Space Force Station

Loading…

Volgende Passages (komende 24 uur)

TLE

VersSource: CelesTrak SupGP

Epoch: Sep 14, 2026, 22:54 UTC

1 66512C 25263AD  26257.95465278 -.00014535  00000+0 -52639-3 0  2570
2 66512  43.0040   1.8772 0001982 271.1194  96.8389 15.27589709    10

Volg STARLINK-35366 in realtime met AllMySat

Download on the App Store